Year,Month,Day,Hour,Minute,Value (Times are PST for temperature in C)
2015,05,29,00,00,18.20
2015,05,29,00,01,18.20
2015,05,29,00,02,18.20
2015,05,29,00,03,18.10
2015,05,29,00,04,18.10
2015,05,29,00,05,18.10
2015,05,29,00,06,18.00
2015,05,29,00,07,18.00
2015,05,29,00,08,18.00
2015,05,29,00,09,17.90
2015,05,29,00,10,17.90
2015,05,29,00,11,17.90
2015,05,29,00,12,17.90
2015,05,29,00,13,17.90
2015,05,29,00,14,17.90
2015,05,29,00,15,17.90
2015,05,29,00,16,17.90
2015,05,29,00,17,17.80
2015,05,29,00,18,17.80
2015,05,29,00,19,17.80
2015,05,29,00,20,17.80
2015,05,29,00,21,17.70
2015,05,29,00,22,17.70
2015,05,29,00,23,17.70
2015,05,29,00,24,17.60
2015,05,29,00,25,17.60
2015,05,29,00,26,17.50
2015,05,29,00,27,17.50
2015,05,29,00,28,17.40
2015,05,29,00,29,17.40
2015,05,29,00,30,17.40
2015,05,29,00,31,17.30
2015,05,29,00,32,17.30
2015,05,29,00,33,17.30
2015,05,29,00,34,17.20
2015,05,29,00,35,17.20
2015,05,29,00,36,17.20
2015,05,29,00,37,17.20
2015,05,29,00,38,17.20
2015,05,29,00,39,17.20
2015,05,29,00,40,17.10
2015,05,29,00,41,17.10
2015,05,29,00,42,17.10
2015,05,29,00,43,17.00
2015,05,29,00,44,17.00
2015,05,29,00,45,16.90
2015,05,29,00,46,16.90
2015,05,29,00,47,16.80
2015,05,29,00,48,16.80
2015,05,29,00,49,16.80
2015,05,29,00,50,16.70
2015,05,29,00,51,16.70
2015,05,29,00,52,16.70
2015,05,29,00,53,16.60
2015,05,29,00,54,16.60
2015,05,29,00,55,16.60
2015,05,29,00,56,16.50
2015,05,29,00,57,16.50
2015,05,29,00,58,16.40
2015,05,29,00,59,16.40
2015,05,29,01,00,16.30
2015,05,29,01,01,16.30
2015,05,29,01,02,16.30
2015,05,29,01,03,16.30
2015,05,29,01,04,16.30
2015,05,29,01,05,16.30
2015,05,29,01,06,16.20
2015,05,29,01,07,16.20
2015,05,29,01,08,16.20
2015,05,29,01,09,16.20
2015,05,29,01,10,16.20
2015,05,29,01,11,16.20
2015,05,29,01,12,16.20
2015,05,29,01,13,16.20
2015,05,29,01,14,16.20
2015,05,29,01,15,16.20
2015,05,29,01,16,16.20
2015,05,29,01,17,16.20
2015,05,29,01,18,16.20
2015,05,29,01,19,16.20
2015,05,29,01,20,16.20
2015,05,29,01,21,16.20
2015,05,29,01,22,16.20
2015,05,29,01,23,16.20
2015,05,29,01,24,16.20
2015,05,29,01,25,16.20
2015,05,29,01,26,16.20
2015,05,29,01,27,16.20
2015,05,29,01,28,16.20
2015,05,29,01,29,16.20
2015,05,29,01,30,16.20
2015,05,29,01,31,16.20
2015,05,29,01,32,16.20
2015,05,29,01,33,16.20
2015,05,29,01,34,16.10
2015,05,29,01,35,16.10
2015,05,29,01,36,16.10
2015,05,29,01,37,16.10
2015,05,29,01,38,16.10
2015,05,29,01,39,16.10
2015,05,29,01,40,16.10
2015,05,29,01,41,16.10
2015,05,29,01,42,16.00
2015,05,29,01,43,16.00
2015,05,29,01,44,16.00
2015,05,29,01,45,16.00
2015,05,29,01,46,16.00
2015,05,29,01,47,16.00
2015,05,29,01,48,15.90
2015,05,29,01,49,15.90
2015,05,29,01,50,15.90
2015,05,29,01,51,15.90
2015,05,29,01,52,15.90
2015,05,29,01,53,15.90
2015,05,29,01,54,15.90
2015,05,29,01,55,15.90
2015,05,29,01,56,15.80
2015,05,29,01,57,15.80
2015,05,29,01,58,15.80
2015,05,29,01,59,15.80
2015,05,29,02,00,15.80
2015,05,29,02,01,15.80
2015,05,29,02,02,15.80
2015,05,29,02,03,15.80
2015,05,29,02,04,15.70
2015,05,29,02,05,15.70
2015,05,29,02,06,15.70
2015,05,29,02,07,15.70
2015,05,29,02,08,15.70
2015,05,29,02,09,15.60
2015,05,29,02,10,15.60
2015,05,29,02,11,15.60
2015,05,29,02,12,15.60
2015,05,29,02,13,15.60
2015,05,29,02,14,15.50
2015,05,29,02,15,15.50
2015,05,29,02,16,15.50
2015,05,29,02,17,15.40
2015,05,29,02,18,15.40
2015,05,29,02,19,15.40
2015,05,29,02,20,15.40
2015,05,29,02,21,15.40
2015,05,29,02,22,15.40
2015,05,29,02,23,15.50
2015,05,29,02,24,15.50
2015,05,29,02,25,15.60
2015,05,29,02,26,15.60
2015,05,29,02,27,15.60
2015,05,29,02,28,15.60
2015,05,29,02,29,15.60
2015,05,29,02,30,15.60
2015,05,29,02,31,15.60
2015,05,29,02,32,15.60
2015,05,29,02,33,15.60
2015,05,29,02,34,15.60
2015,05,29,02,35,15.60
2015,05,29,02,36,15.60
2015,05,29,02,37,15.60
2015,05,29,02,38,15.60
2015,05,29,02,39,15.50
2015,05,29,02,40,15.50
2015,05,29,02,41,15.40
2015,05,29,02,42,15.30
2015,05,29,02,43,15.20
2015,05,29,02,44,15.10
2015,05,29,02,45,15.00
2015,05,29,02,46,15.00
2015,05,29,02,47,15.00
2015,05,29,02,48,15.00
2015,05,29,02,49,14.80
2015,05,29,02,50,14.80
2015,05,29,02,51,14.70
2015,05,29,02,52,14.70
2015,05,29,02,53,14.60
2015,05,29,02,54,14.60
2015,05,29,02,55,14.50
2015,05,29,02,56,14.50
2015,05,29,02,57,14.40
2015,05,29,02,58,14.40
2015,05,29,02,59,14.40
2015,05,29,03,00,14.40
2015,05,29,03,01,14.40
2015,05,29,03,02,14.50
2015,05,29,03,03,14.50
2015,05,29,03,04,14.60
2015,05,29,03,05,14.60
2015,05,29,03,06,14.70
2015,05,29,03,07,14.80
2015,05,29,03,08,14.90
2015,05,29,03,09,14.90
2015,05,29,03,10,15.00
2015,05,29,03,11,15.00
2015,05,29,03,12,15.00
2015,05,29,03,13,15.00
2015,05,29,03,14,15.00
2015,05,29,03,15,15.00
2015,05,29,03,16,15.00
2015,05,29,03,17,15.00
2015,05,29,03,18,15.00
2015,05,29,03,19,15.00
2015,05,29,03,20,15.00
2015,05,29,03,21,15.00
2015,05,29,03,22,15.00
2015,05,29,03,23,15.00
2015,05,29,03,24,15.00
2015,05,29,03,25,14.90
2015,05,29,03,26,14.90
2015,05,29,03,27,14.90
2015,05,29,03,28,14.90
2015,05,29,03,29,14.90
2015,05,29,03,30,14.90
2015,05,29,03,31,14.90
2015,05,29,03,32,14.90
2015,05,29,03,33,14.80
2015,05,29,03,34,14.80
2015,05,29,03,35,14.70
2015,05,29,03,36,14.70
2015,05,29,03,37,14.60
2015,05,29,03,38,14.60
2015,05,29,03,39,14.50
2015,05,29,03,40,14.50
2015,05,29,03,41,14.40
2015,05,29,03,42,14.40
2015,05,29,03,43,14.40
2015,05,29,03,44,14.30
2015,05,29,03,45,14.30
2015,05,29,03,46,14.20
2015,05,29,03,47,14.20
2015,05,29,03,48,14.20
2015,05,29,03,49,14.10
2015,05,29,03,50,14.10
2015,05,29,03,51,14.10
2015,05,29,03,52,14.00
2015,05,29,03,53,14.00
2015,05,29,03,54,13.90
2015,05,29,03,55,13.90
2015,05,29,03,56,13.90
2015,05,29,03,57,13.90
2015,05,29,03,58,13.90
2015,05,29,03,59,13.90
2015,05,29,04,00,13.90
2015,05,29,04,01,13.90
2015,05,29,04,02,13.90
2015,05,29,04,03,13.90
2015,05,29,04,04,13.90
2015,05,29,04,05,14.00
2015,05,29,04,06,14.00
2015,05,29,04,07,14.10
2015,05,29,04,08,14.10
2015,05,29,04,09,14.10
2015,05,29,04,10,14.10
2015,05,29,04,11,14.20
2015,05,29,04,12,14.20
2015,05,29,04,13,14.20
2015,05,29,04,14,14.20
2015,05,29,04,15,14.20
2015,05,29,04,16,14.20
2015,05,29,04,17,14.20
2015,05,29,04,18,14.20
2015,05,29,04,19,14.20
2015,05,29,04,20,14.20
2015,05,29,04,21,14.20
2015,05,29,04,22,14.20
2015,05,29,04,23,14.20
2015,05,29,04,24,14.20
2015,05,29,04,25,14.20
2015,05,29,04,26,14.20
2015,05,29,04,27,14.20
2015,05,29,04,28,14.20
2015,05,29,04,29,14.20
2015,05,29,04,30,14.20
2015,05,29,04,31,14.20
2015,05,29,04,32,14.20
2015,05,29,04,33,14.20
2015,05,29,04,34,14.20
2015,05,29,04,35,14.20
2015,05,29,04,36,14.20
2015,05,29,04,37,14.20
2015,05,29,04,38,14.20
2015,05,29,04,39,14.20
2015,05,29,04,40,14.20
2015,05,29,04,41,14.20
2015,05,29,04,42,14.20
2015,05,29,04,43,14.10
2015,05,29,04,44,14.10
2015,05,29,04,45,14.10
2015,05,29,04,46,14.10
2015,05,29,04,47,14.10
2015,05,29,04,48,14.00
2015,05,29,04,49,14.00
2015,05,29,04,50,14.00
2015,05,29,04,51,14.00
2015,05,29,04,52,14.00
2015,05,29,04,53,14.00
2015,05,29,04,54,14.00
2015,05,29,04,55,14.00
2015,05,29,04,56,14.10
2015,05,29,04,57,14.10
2015,05,29,04,58,14.10
2015,05,29,04,59,14.10
2015,05,29,05,00,14.10
2015,05,29,05,01,14.10
2015,05,29,05,02,14.10
2015,05,29,05,03,14.10
2015,05,29,05,04,14.10
2015,05,29,05,05,14.10
2015,05,29,05,06,14.10
2015,05,29,05,07,14.00
2015,05,29,05,08,14.00
2015,05,29,05,09,14.00
2015,05,29,05,10,14.00
2015,05,29,05,11,14.00
2015,05,29,05,12,13.90
2015,05,29,05,13,13.90
2015,05,29,05,14,13.90
2015,05,29,05,15,13.90
2015,05,29,05,16,13.90
2015,05,29,05,17,13.80
2015,05,29,05,18,13.80
2015,05,29,05,19,13.80
2015,05,29,05,20,13.80
2015,05,29,05,21,13.80
2015,05,29,05,22,13.70
2015,05,29,05,23,13.70
2015,05,29,05,24,13.70
2015,05,29,05,25,13.70
2015,05,29,05,26,13.70
2015,05,29,05,27,13.70
2015,05,29,05,28,13.70
2015,05,29,05,29,13.70
2015,05,29,05,30,13.60
2015,05,29,05,31,13.60
2015,05,29,05,32,13.60
2015,05,29,05,33,13.60
2015,05,29,05,34,13.60
2015,05,29,05,35,13.60
2015,05,29,05,36,13.60
2015,05,29,05,37,13.70
2015,05,29,05,38,13.60
2015,05,29,05,39,13.60
2015,05,29,05,40,13.60
2015,05,29,05,41,13.60
2015,05,29,05,42,13.60
2015,05,29,05,43,13.60
2015,05,29,05,44,13.60
2015,05,29,05,45,13.60
2015,05,29,05,46,13.60
2015,05,29,05,47,13.60
2015,05,29,05,48,13.60
2015,05,29,05,49,13.60
2015,05,29,05,50,13.60
2015,05,29,05,51,13.60
2015,05,29,05,52,13.60
2015,05,29,05,53,13.60
2015,05,29,05,54,13.60
2015,05,29,05,55,13.60
2015,05,29,05,56,13.60
2015,05,29,05,57,13.50
2015,05,29,05,58,13.50
2015,05,29,05,59,13.50
2015,05,29,06,00,13.50
2015,05,29,06,01,13.50
2015,05,29,06,02,13.50
2015,05,29,06,03,13.50
2015,05,29,06,04,13.40
2015,05,29,06,05,13.40
2015,05,29,06,06,13.40
2015,05,29,06,07,13.40
2015,05,29,06,08,13.40
2015,05,29,06,09,13.40
2015,05,29,06,10,13.40
2015,05,29,06,11,13.40
2015,05,29,06,12,13.30
2015,05,29,06,13,13.30
2015,05,29,06,14,13.30
2015,05,29,06,15,13.30
2015,05,29,06,16,13.30
2015,05,29,06,17,13.30
2015,05,29,06,18,13.30
2015,05,29,06,19,13.40
2015,05,29,06,20,13.40
2015,05,29,06,21,13.40
2015,05,29,06,22,13.40
2015,05,29,06,23,13.40
2015,05,29,06,24,13.40
2015,05,29,06,25,13.40
2015,05,29,06,26,13.40
2015,05,29,06,27,13.40
2015,05,29,06,28,13.40
2015,05,29,06,29,13.40
2015,05,29,06,30,13.50
2015,05,29,06,31,13.50
2015,05,29,06,32,13.50
2015,05,29,06,33,13.50
2015,05,29,06,34,13.60
2015,05,29,06,35,13.60
2015,05,29,06,36,13.60
2015,05,29,06,37,13.60
2015,05,29,06,38,13.60
2015,05,29,06,39,13.70
2015,05,29,06,40,13.70
2015,05,29,06,41,13.70
2015,05,29,06,42,13.70
2015,05,29,06,43,13.70
2015,05,29,06,44,13.70
2015,05,29,06,45,13.80
2015,05,29,06,46,13.80
2015,05,29,06,47,13.80
2015,05,29,06,48,13.90
2015,05,29,06,49,13.90
2015,05,29,06,50,13.90
2015,05,29,06,51,14.00
2015,05,29,06,52,14.00
2015,05,29,06,53,14.10
2015,05,29,06,54,14.10
2015,05,29,06,55,14.20
2015,05,29,06,56,14.20
2015,05,29,06,57,14.30
2015,05,29,06,58,14.40
2015,05,29,06,59,14.60
2015,05,29,07,00,14.70
2015,05,29,07,01,15.00
2015,05,29,07,02,15.00
2015,05,29,07,03,15.10
2015,05,29,07,04,15.30
2015,05,29,07,05,15.40
2015,05,29,07,06,15.50
2015,05,29,07,07,15.60
2015,05,29,07,08,15.70
2015,05,29,07,09,15.80
2015,05,29,07,10,15.90
2015,05,29,07,11,16.00
2015,05,29,07,12,16.10
2015,05,29,07,13,16.20
2015,05,29,07,14,16.30
2015,05,29,07,15,16.40
2015,05,29,07,16,16.50
2015,05,29,07,17,16.60
2015,05,29,07,18,16.60
2015,05,29,07,19,16.60
2015,05,29,07,20,16.70
2015,05,29,07,21,16.70
2015,05,29,07,22,16.70
2015,05,29,07,23,16.80
2015,05,29,07,24,16.90
2015,05,29,07,25,16.90
2015,05,29,07,26,17.00
2015,05,29,07,27,17.10
2015,05,29,07,28,17.10
2015,05,29,07,29,17.20
2015,05,29,07,30,17.20
2015,05,29,07,31,17.30
2015,05,29,07,32,17.30
2015,05,29,07,33,17.40
2015,05,29,07,34,17.50
2015,05,29,07,35,17.50
2015,05,29,07,36,17.50
2015,05,29,07,37,17.40
2015,05,29,07,38,17.30
2015,05,29,07,39,17.30
2015,05,29,07,40,17.30
2015,05,29,07,41,17.40
2015,05,29,07,42,17.40
2015,05,29,07,43,17.40
2015,05,29,07,44,17.50
2015,05,29,07,45,17.50
2015,05,29,07,46,17.60
2015,05,29,07,47,17.70
2015,05,29,07,48,17.70
2015,05,29,07,49,17.80
2015,05,29,07,50,17.80
2015,05,29,07,51,17.80
2015,05,29,07,52,17.80
2015,05,29,07,53,17.80
2015,05,29,07,54,17.90
2015,05,29,07,55,17.90
2015,05,29,07,56,17.80
2015,05,29,07,57,17.80
2015,05,29,07,58,17.80
2015,05,29,07,59,17.80
2015,05,29,08,00,17.70
2015,05,29,08,01,17.70
2015,05,29,08,02,17.70
2015,05,29,08,03,17.70
2015,05,29,08,04,17.70
2015,05,29,08,05,17.70
2015,05,29,08,06,17.70
2015,05,29,08,07,17.70
2015,05,29,08,08,17.70
2015,05,29,08,09,17.70
2015,05,29,08,10,17.60
2015,05,29,08,11,17.60
2015,05,29,08,12,17.60
2015,05,29,08,13,17.60
2015,05,29,08,14,17.70
2015,05,29,08,15,17.60
2015,05,29,08,16,17.60
2015,05,29,08,17,17.50
2015,05,29,08,18,17.50
2015,05,29,08,19,17.50
2015,05,29,08,20,17.40
2015,05,29,08,21,17.40
2015,05,29,08,22,17.40
2015,05,29,08,23,17.30
2015,05,29,08,24,17.30
2015,05,29,08,25,17.30
2015,05,29,08,26,17.30
2015,05,29,08,27,17.30
2015,05,29,08,28,17.40
2015,05,29,08,29,17.40
2015,05,29,08,30,17.40
2015,05,29,08,31,17.40
2015,05,29,08,32,17.40
2015,05,29,08,33,17.40
2015,05,29,08,34,17.40
2015,05,29,08,35,17.50
2015,05,29,08,36,17.50
2015,05,29,08,37,17.60
2015,05,29,08,38,17.50
2015,05,29,08,39,17.50
2015,05,29,08,40,17.50
2015,05,29,08,41,17.50
2015,05,29,08,42,17.60
2015,05,29,08,43,17.70
2015,05,29,08,44,17.70
2015,05,29,08,45,17.70
2015,05,29,08,46,17.80
2015,05,29,08,47,17.80
2015,05,29,08,48,17.90
2015,05,29,08,49,18.00
2015,05,29,08,50,18.00
2015,05,29,08,51,18.00
2015,05,29,08,52,17.90
2015,05,29,08,53,17.90
2015,05,29,08,54,17.90
2015,05,29,08,55,18.00
2015,05,29,08,56,18.00
2015,05,29,08,57,18.00
2015,05,29,08,58,18.00
2015,05,29,08,59,17.90
2015,05,29,09,00,18.00
2015,05,29,09,01,18.10
2015,05,29,09,02,18.20
2015,05,29,09,03,18.20
2015,05,29,09,04,18.20
2015,05,29,09,05,18.10
2015,05,29,09,06,18.10
2015,05,29,09,07,18.20
2015,05,29,09,08,18.20
2015,05,29,09,09,18.20
2015,05,29,09,10,18.30
2015,05,29,09,11,18.40
2015,05,29,09,12,18.50
2015,05,29,09,13,18.50
2015,05,29,09,14,18.50
2015,05,29,09,15,18.40
2015,05,29,09,16,18.50
2015,05,29,09,17,18.40
2015,05,29,09,18,18.40
2015,05,29,09,19,18.30
2015,05,29,09,20,18.30
2015,05,29,09,21,18.30
2015,05,29,09,22,18.20
2015,05,29,09,23,18.30
2015,05,29,09,24,18.30
2015,05,29,09,25,18.30
2015,05,29,09,26,18.20
2015,05,29,09,27,18.20
2015,05,29,09,28,18.10
2015,05,29,09,29,18.10
2015,05,29,09,30,18.10
2015,05,29,09,31,18.20
2015,05,29,09,32,18.30
2015,05,29,09,33,18.40
2015,05,29,09,34,18.40
2015,05,29,09,35,18.40
2015,05,29,09,36,18.50
2015,05,29,09,37,18.50
2015,05,29,09,38,18.50
2015,05,29,09,39,18.40
2015,05,29,09,40,18.40
2015,05,29,09,41,18.30
2015,05,29,09,42,18.40
2015,05,29,09,43,18.40
2015,05,29,09,44,18.50
2015,05,29,09,45,18.60
2015,05,29,09,46,18.70
2015,05,29,09,47,18.70
2015,05,29,09,48,18.70
2015,05,29,09,49,18.70
2015,05,29,09,50,18.70
2015,05,29,09,51,18.80
2015,05,29,09,52,18.80
2015,05,29,09,53,18.80
2015,05,29,09,54,18.90
2015,05,29,09,55,18.80
2015,05,29,09,56,18.80
2015,05,29,09,57,18.80
2015,05,29,09,58,18.90
2015,05,29,09,59,19.00
2015,05,29,10,00,19.10
2015,05,29,10,01,19.20
2015,05,29,10,02,19.20
2015,05,29,10,03,19.30
2015,05,29,10,04,19.20
2015,05,29,10,05,19.10
2015,05,29,10,06,19.00
2015,05,29,10,07,18.90
2015,05,29,10,08,19.00
2015,05,29,10,09,19.20
2015,05,29,10,10,19.20
2015,05,29,10,11,19.10
2015,05,29,10,12,19.00
2015,05,29,10,13,18.90
2015,05,29,10,14,18.80
2015,05,29,10,15,18.80
2015,05,29,10,16,18.80
2015,05,29,10,17,18.80
2015,05,29,10,18,18.90
2015,05,29,10,19,19.00
2015,05,29,10,20,19.00
2015,05,29,10,21,19.00
2015,05,29,10,22,18.90
2015,05,29,10,23,18.90
2015,05,29,10,24,19.00
2015,05,29,10,25,19.00
2015,05,29,10,26,19.10
2015,05,29,10,27,19.20
2015,05,29,10,28,19.20
2015,05,29,10,29,19.20
2015,05,29,10,30,19.20
2015,05,29,10,31,19.30
2015,05,29,10,32,19.30
2015,05,29,10,33,19.30
2015,05,29,10,34,19.30
2015,05,29,10,35,19.40
2015,05,29,10,36,19.40
2015,05,29,10,37,19.50
2015,05,29,10,38,19.50
2015,05,29,10,39,19.50
2015,05,29,10,40,19.50
2015,05,29,10,41,19.60
2015,05,29,10,42,19.60
2015,05,29,10,43,19.70
2015,05,29,10,44,19.60
2015,05,29,10,45,19.50
2015,05,29,10,46,19.50
2015,05,29,10,47,19.70
2015,05,29,10,48,19.90
2015,05,29,10,49,20.00
2015,05,29,10,50,20.10
2015,05,29,10,51,20.10
2015,05,29,10,52,20.10
2015,05,29,10,53,20.00
2015,05,29,10,54,19.90
2015,05,29,10,55,19.90
2015,05,29,10,56,19.90
2015,05,29,10,57,19.90
2015,05,29,10,58,19.80
2015,05,29,10,59,19.80
2015,05,29,11,00,19.80
2015,05,29,11,01,19.90
2015,05,29,11,02,20.00
2015,05,29,11,03,20.10
2015,05,29,11,04,20.10
2015,05,29,11,05,20.00
2015,05,29,11,06,19.90
2015,05,29,11,07,19.90
2015,05,29,11,08,19.80
2015,05,29,11,09,19.80
2015,05,29,11,10,19.70
2015,05,29,11,11,19.60
2015,05,29,11,12,19.70
2015,05,29,11,13,19.80
2015,05,29,11,14,20.00
2015,05,29,11,15,20.00
2015,05,29,11,16,20.00
2015,05,29,11,17,20.10
2015,05,29,11,18,20.10
2015,05,29,11,19,20.20
2015,05,29,11,20,20.30
2015,05,29,11,21,20.50
2015,05,29,11,22,20.50
2015,05,29,11,23,20.40
2015,05,29,11,24,20.30
2015,05,29,11,25,20.20
2015,05,29,11,26,20.10
2015,05,29,11,27,20.20
2015,05,29,11,28,20.20
2015,05,29,11,29,20.20
2015,05,29,11,30,20.10
2015,05,29,11,31,20.10
2015,05,29,11,32,20.20
2015,05,29,11,33,20.30
2015,05,29,11,34,20.20
2015,05,29,11,35,20.10
2015,05,29,11,36,20.20
2015,05,29,11,37,20.30
2015,05,29,11,38,20.30
2015,05,29,11,39,20.30
2015,05,29,11,40,20.30
2015,05,29,11,41,20.20
2015,05,29,11,42,20.10
2015,05,29,11,43,19.90
2015,05,29,11,44,19.90
2015,05,29,11,45,20.00
2015,05,29,11,46,20.00
2015,05,29,11,47,20.00
2015,05,29,11,48,20.10
2015,05,29,11,49,20.20
2015,05,29,11,50,20.20
2015,05,29,11,51,20.10
2015,05,29,11,52,20.10
2015,05,29,11,53,20.20
2015,05,29,11,54,20.20
2015,05,29,11,55,20.10
2015,05,29,11,56,20.00
2015,05,29,11,57,20.00
2015,05,29,11,58,20.00
2015,05,29,11,59,20.10
2015,05,29,12,00,20.00
2015,05,29,12,01,20.00
2015,05,29,12,02,20.00
2015,05,29,12,03,19.90
2015,05,29,12,04,20.00
2015,05,29,12,05,20.10
2015,05,29,12,06,20.20
2015,05,29,12,07,20.20
2015,05,29,12,08,20.10
2015,05,29,12,09,19.90
2015,05,29,12,10,19.90
2015,05,29,12,11,20.00
2015,05,29,12,12,20.10
2015,05,29,12,13,20.30
2015,05,29,12,14,20.30
2015,05,29,12,15,20.40
2015,05,29,12,16,20.50
2015,05,29,12,17,20.60
2015,05,29,12,18,20.80
2015,05,29,12,19,20.70
2015,05,29,12,20,20.50
2015,05,29,12,21,20.50
2015,05,29,12,22,20.50
2015,05,29,12,23,20.50
2015,05,29,12,24,20.50
2015,05,29,12,25,20.70
2015,05,29,12,26,20.70
2015,05,29,12,27,20.70
2015,05,29,12,28,20.60
2015,05,29,12,29,20.50
2015,05,29,12,30,20.40
2015,05,29,12,31,20.30
2015,05,29,12,32,20.30
2015,05,29,12,33,20.30
2015,05,29,12,34,20.40
2015,05,29,12,35,20.50
2015,05,29,12,36,20.60
2015,05,29,12,37,20.60
2015,05,29,12,38,20.60
2015,05,29,12,39,20.70
2015,05,29,12,40,20.70
2015,05,29,12,41,20.70
2015,05,29,12,42,20.70
2015,05,29,12,43,20.70
2015,05,29,12,44,20.60
2015,05,29,12,45,20.50
2015,05,29,12,46,20.50
2015,05,29,12,47,20.40
2015,05,29,12,48,20.50
2015,05,29,12,49,20.60
2015,05,29,12,50,20.70
2015,05,29,12,51,20.80
2015,05,29,12,52,20.80
2015,05,29,12,53,20.80
2015,05,29,12,54,20.80
2015,05,29,12,55,20.80
2015,05,29,12,56,20.80
2015,05,29,12,57,20.70
2015,05,29,12,58,20.70
2015,05,29,12,59,20.70
2015,05,29,13,00,20.70
2015,05,29,13,01,20.70
2015,05,29,13,02,20.70
2015,05,29,13,03,20.70
2015,05,29,13,04,20.70
2015,05,29,13,05,20.60
2015,05,29,13,06,20.60
2015,05,29,13,07,20.60
2015,05,29,13,08,20.70
2015,05,29,13,09,20.70
2015,05,29,13,10,20.70
2015,05,29,13,11,20.70
2015,05,29,13,12,20.70
2015,05,29,13,13,20.70
2015,05,29,13,14,20.80
2015,05,29,13,15,20.90
2015,05,29,13,16,20.80
2015,05,29,13,17,20.70
2015,05,29,13,18,20.60
2015,05,29,13,19,20.70
2015,05,29,13,20,20.80
2015,05,29,13,21,20.70
2015,05,29,13,22,20.90
2015,05,29,13,23,21.00
2015,05,29,13,24,21.20
2015,05,29,13,25,21.20
2015,05,29,13,26,21.10
2015,05,29,13,27,21.00
2015,05,29,13,28,21.00
2015,05,29,13,29,20.90
2015,05,29,13,30,20.90
2015,05,29,13,31,20.90
2015,05,29,13,32,21.00
2015,05,29,13,33,21.10
2015,05,29,13,34,21.10
2015,05,29,13,35,21.20
2015,05,29,13,36,21.30
2015,05,29,13,37,21.30
2015,05,29,13,38,21.30
2015,05,29,13,39,21.20
2015,05,29,13,40,21.20
2015,05,29,13,41,21.30
2015,05,29,13,42,21.40
2015,05,29,13,43,21.40
2015,05,29,13,44,21.30
2015,05,29,13,45,21.30
2015,05,29,13,46,21.20
2015,05,29,13,47,21.30
2015,05,29,13,48,21.20
2015,05,29,13,49,21.10
2015,05,29,13,50,21.10
2015,05,29,13,51,21.10
2015,05,29,13,52,21.20
2015,05,29,13,53,21.30
2015,05,29,13,54,21.30
2015,05,29,13,55,21.20
2015,05,29,13,56,21.10
2015,05,29,13,57,21.10
2015,05,29,13,58,21.10
2015,05,29,13,59,21.00
2015,05,29,14,00,21.00
2015,05,29,14,01,21.00
2015,05,29,14,02,21.10
2015,05,29,14,03,21.30
2015,05,29,14,04,21.30
2015,05,29,14,05,21.20
2015,05,29,14,06,21.00
2015,05,29,14,07,21.00
2015,05,29,14,08,21.00
2015,05,29,14,09,21.00
2015,05,29,14,10,21.10
2015,05,29,14,11,21.10
2015,05,29,14,12,21.00
2015,05,29,14,13,21.00
2015,05,29,14,14,21.00
2015,05,29,14,15,20.90
2015,05,29,14,16,20.80
2015,05,29,14,17,20.80
2015,05,29,14,18,20.70
2015,05,29,14,19,20.70
2015,05,29,14,20,20.80
2015,05,29,14,21,20.80
2015,05,29,14,22,20.70
2015,05,29,14,23,20.60
2015,05,29,14,24,20.60
2015,05,29,14,25,20.70
2015,05,29,14,26,20.90
2015,05,29,14,27,21.00
2015,05,29,14,28,21.00
2015,05,29,14,29,21.10
2015,05,29,14,30,21.30
2015,05,29,14,31,21.40
2015,05,29,14,32,21.40
2015,05,29,14,33,21.40
2015,05,29,14,34,21.30
2015,05,29,14,35,21.30
2015,05,29,14,36,21.20
2015,05,29,14,37,21.20
2015,05,29,14,38,21.20
2015,05,29,14,39,21.30
2015,05,29,14,40,21.40
2015,05,29,14,41,21.40
2015,05,29,14,42,21.20
2015,05,29,14,43,21.00
2015,05,29,14,44,20.90
2015,05,29,14,45,20.80
2015,05,29,14,46,20.80
2015,05,29,14,47,20.70
2015,05,29,14,48,20.80
2015,05,29,14,49,20.80
2015,05,29,14,50,20.80
2015,05,29,14,51,20.90
2015,05,29,14,52,21.00
2015,05,29,14,53,21.10
2015,05,29,14,54,21.00
2015,05,29,14,55,21.00
2015,05,29,14,56,21.10
2015,05,29,14,57,21.00
2015,05,29,14,58,21.00
2015,05,29,14,59,21.00
2015,05,29,15,00,20.90
2015,05,29,15,01,20.90
2015,05,29,15,02,20.90
2015,05,29,15,03,20.90
2015,05,29,15,04,20.90
2015,05,29,15,05,21.00
2015,05,29,15,06,21.10
2015,05,29,15,07,21.20
2015,05,29,15,08,21.30
2015,05,29,15,09,21.40
2015,05,29,15,10,21.40
2015,05,29,15,11,21.40
2015,05,29,15,12,21.30
2015,05,29,15,13,21.20
2015,05,29,15,14,21.30
2015,05,29,15,15,21.30
2015,05,29,15,16,21.40
2015,05,29,15,17,21.50
2015,05,29,15,18,21.50
2015,05,29,15,19,21.60
2015,05,29,15,20,21.60
2015,05,29,15,21,21.50
2015,05,29,15,22,21.50
2015,05,29,15,23,21.50
2015,05,29,15,24,21.50
2015,05,29,15,25,21.40
2015,05,29,15,26,21.40
2015,05,29,15,27,21.40
2015,05,29,15,28,21.50
2015,05,29,15,29,21.60
2015,05,29,15,30,21.70
2015,05,29,15,31,21.70
2015,05,29,15,32,21.70
2015,05,29,15,33,21.70
2015,05,29,15,34,21.80
2015,05,29,15,35,21.80
2015,05,29,15,36,21.80
2015,05,29,15,37,21.80
2015,05,29,15,38,21.80
2015,05,29,15,39,21.70
2015,05,29,15,40,21.70
2015,05,29,15,41,21.70
2015,05,29,15,42,21.80
2015,05,29,15,43,21.90
2015,05,29,15,44,22.00
2015,05,29,15,45,22.10
2015,05,29,15,46,22.10
2015,05,29,15,47,22.10
2015,05,29,15,48,22.10
2015,05,29,15,49,22.00
2015,05,29,15,50,22.00
2015,05,29,15,51,21.90
2015,05,29,15,52,21.90
2015,05,29,15,53,21.90
2015,05,29,15,54,22.00
2015,05,29,15,55,22.00
2015,05,29,15,56,22.00
2015,05,29,15,57,21.80
2015,05,29,15,58,21.80
2015,05,29,15,59,21.80
2015,05,29,16,00,21.90
2015,05,29,16,01,22.00
2015,05,29,16,02,22.20
2015,05,29,16,03,22.30
2015,05,29,16,04,22.40
2015,05,29,16,05,22.40
2015,05,29,16,06,22.30
2015,05,29,16,07,22.20
2015,05,29,16,08,22.20
2015,05,29,16,09,22.20
2015,05,29,16,10,22.20
2015,05,29,16,11,22.20
2015,05,29,16,12,22.20
2015,05,29,16,13,22.20
2015,05,29,16,14,22.10
2015,05,29,16,15,22.10
2015,05,29,16,16,22.00
2015,05,29,16,17,22.10
2015,05,29,16,18,22.10
2015,05,29,16,19,22.10
2015,05,29,16,20,22.10
2015,05,29,16,21,22.20
2015,05,29,16,22,22.30
2015,05,29,16,23,22.40
2015,05,29,16,24,22.50
2015,05,29,16,25,22.70
2015,05,29,16,26,22.80
2015,05,29,16,27,22.90
2015,05,29,16,28,22.80
2015,05,29,16,29,22.70
2015,05,29,16,30,22.70
2015,05,29,16,31,22.70
2015,05,29,16,32,22.70
2015,05,29,16,33,22.70
2015,05,29,16,34,22.70
2015,05,29,16,35,22.80
2015,05,29,16,36,22.80
2015,05,29,16,37,22.80
2015,05,29,16,38,22.70
2015,05,29,16,39,22.80
2015,05,29,16,40,22.90
2015,05,29,16,41,23.00
2015,05,29,16,42,23.00
2015,05,29,16,43,23.00
2015,05,29,16,44,22.90
2015,05,29,16,45,22.80
2015,05,29,16,46,22.70
2015,05,29,16,47,22.60
2015,05,29,16,48,22.50
2015,05,29,16,49,22.50
2015,05,29,16,50,22.50
2015,05,29,16,51,22.60
2015,05,29,16,52,22.60
2015,05,29,16,53,22.70
2015,05,29,16,54,22.70
2015,05,29,16,55,22.60
2015,05,29,16,56,22.70
2015,05,29,16,57,22.70
2015,05,29,16,58,22.60
2015,05,29,16,59,22.60
2015,05,29,17,00,22.70
2015,05,29,17,01,22.70
2015,05,29,17,02,22.70
2015,05,29,17,03,22.70
2015,05,29,17,04,22.70
2015,05,29,17,05,22.60
2015,05,29,17,06,22.50
2015,05,29,17,07,22.40
2015,05,29,17,08,22.40
2015,05,29,17,09,22.40
2015,05,29,17,10,22.40
2015,05,29,17,11,22.40
2015,05,29,17,12,22.40
2015,05,29,17,13,22.30
2015,05,29,17,14,22.30
2015,05,29,17,15,22.30
2015,05,29,17,16,22.30
2015,05,29,17,17,22.40
2015,05,29,17,18,22.40
2015,05,29,17,19,22.40